When you browse on this site, cookies collect data to enhance your experience and personalize the content and advertising you see.
Visit our Privacy Policy to learn more. By continuing to use the site, you agree to this use of cookies and data.
  • In United Kingdom
  • List of Countries
  • For 7 days
  • Water Temperature
  • Satellite Maps
  • Weather Map
  • Weather Widgets
  • user-avatar
    Login

    Hourly Weather Qala i Naw

    Today, 22 May, Wednesday

    Time Temperature Precipitation Wind Pressure Humidity
    00:00 +26°C° 0 mm 4 mps 682 mmHg 34%
    01:00 +25°C° 0 mm 5 mps 682 mmHg 36%
    02:00 +25°C° 0 mm 4 mps 682 mmHg 39%
    03:00 +23°C° 0 mm 4 mps 681 mmHg 41%
    04:00 +22°C° 0 mm 4 mps 681 mmHg 46%
    05:00 +22°C° 0 mm 4 mps 681 mmHg 44%
    06:00 +22°C° 0 mm 4 mps 682 mmHg 43%
    07:00 +22°C° 0 mm 3 mps 682 mmHg 42%
    08:00 +22°C° 0 mm 3 mps 682 mmHg 40%
    09:00 +23°C° 0 mm 4 mps 681 mmHg 38%
    10:00 +23°C° 0 mm 4 mps 682 mmHg 38%
    11:00 +25°C° 0 mm 5 mps 682 mmHg 35%
    12:00 +26°C° 0 mm 6 mps 682 mmHg 33%
    13:00 +27°C° 0 mm 6 mps 681 mmHg 30%
    14:00 +26°C° 0 mm 7 mps 681 mmHg 30%
    15:00 +26°C° 0 mm 8 mps 681 mmHg 30%
    16:00 +26°C° 0 mm 8 mps 681 mmHg 30%
    17:00 +23°C° 0 mm 8 mps 681 mmHg 30%
    18:00 +22°C° 0 mm 8 mps 681 mmHg 31%
    19:00 +21°C° 0 mm 8 mps 682 mmHg 32%
    20:00 +20°C° 0 mm 7 mps 682 mmHg 31%
    21:00 +19°C° 0 mm 5 mps 682 mmHg 29%
    22:00 +18°C° 0 mm 4 mps 682 mmHg 28%
    23:00 +17°C° 0 mm 4 mps 681 mmHg 28%

    Tomorrow, 23 May, Thursday

    Time Temperature Precipitation Wind Pressure Humidity
    00:00 +15°C° 0 mm 4 mps 681 mmHg 28%
    01:00 +16°C° 0 mm 3 mps 680 mmHg 28%
    02:00 +14°C° 0 mm 3 mps 680 mmHg 30%
    03:00 +15°C° 0 mm 2 mps 680 mmHg 32%
    04:00 +14°C° 0 mm 2 mps 680 mmHg 35%
    05:00 +14°C° 0 mm 2 mps 680 mmHg 35%
    06:00 +14°C° 0 mm 2 mps 680 mmHg 36%
    07:00 +14°C° 0 mm 2 mps 680 mmHg 37%
    08:00 +16°C° 0 mm 2 mps 680 mmHg 34%
    09:00 +17°C° 0 mm 2 mps 680 mmHg 32%
    10:00 +18°C° 0 mm 2 mps 680 mmHg 29%
    11:00 +19°C° 0 mm 3 mps 680 mmHg 27%
    12:00 +20°C° 0 mm 3 mps 680 mmHg 25%
    13:00 +22°C° 0 mm 3 mps 680 mmHg 23%
    14:00 +22°C° 0 mm 4 mps 680 mmHg 23%
    15:00 +23°C° 0 mm 4 mps 680 mmHg 22%
    16:00 +23°C° 0 mm 5 mps 680 mmHg 22%
    17:00 +22°C° 0 mm 5 mps 680 mmHg 23%
    18:00 +21°C° 0 mm 5 mps 680 mmHg 25%
    19:00 +20°C° 0 mm 5 mps 680 mmHg 27%
    20:00 +19°C° 0 mm 4 mps 680 mmHg 29%
    21:00 +18°C° 0 mm 3 mps 680 mmHg 31%
    22:00 +18°C° 0 mm 1 mps 680 mmHg 34%
    23:00 +18°C° 0 mm 1 mps 680 mmHg 35%

    Day after tomorrow, 24 May, Friday

    Time Temperature Precipitation Wind Pressure Humidity
    00:00 +16°C° 0 mm 1 mps 680 mmHg 37%
    01:00 +15°C° 0 mm 0 mps 680 mmHg 39%
    02:00 +14°C° 0 mm 0 mps 680 mmHg 40%
    03:00 +14°C° 0 mm 0 mps 680 mmHg 41%
    04:00 +14°C° 0 mm 0 mps 680 mmHg 42%
    05:00 +15°C° 0 mm 0 mps 680 mmHg 38%
    06:00 +18°C° 0 mm 1 mps 680 mmHg 34%
    07:00 +19°C° 0 mm 1 mps 681 mmHg 31%
    08:00 +21°C° 0 mm 1 mps 681 mmHg 29%
    09:00 +23°C° 0 mm 1 mps 681 mmHg 27%
    10:00 +24°C° 0 mm 1 mps 682 mmHg 25%
    11:00 +25°C° 0 mm 2 mps 682 mmHg 23%
    12:00 +26°C° 0 mm 3 mps 682 mmHg 22%
    13:00 +28°C° 0 mm 4 mps 682 mmHg 20%
    14:00 +28°C° 0 mm 4 mps 681 mmHg 18%
    15:00 +28°C° 0 mm 4 mps 681 mmHg 17%
    16:00 +28°C° 0 mm 4 mps 681 mmHg 15%
    17:00 +27°C° 0 mm 3 mps 681 mmHg 17%
    18:00 +26°C° 0 mm 2 mps 681 mmHg 19%
    19:00 +25°C° 0 mm 1 mps 682 mmHg 20%
    20:00 +24°C° 0 mm 1 mps 682 mmHg 21%
    21:00 +24°C° 0 mm 1 mps 682 mmHg 22%
    22:00 +23°C° 0 mm 1 mps 683 mmHg 23%
    23:00 +23°C° 0 mm 1 mps 683 mmHg 23%

    25 May, Saturday

    Time Temperature Precipitation Wind Pressure Humidity
    00:00 +22°C° 0 mm 1 mps 682 mmHg 23%
    01:00 +22°C° 0 mm 1 mps 682 mmHg 23%
    02:00 +21°C° 0 mm 1 mps 682 mmHg 24%
    03:00 +21°C° 0 mm 1 mps 682 mmHg 24%
    04:00 +20°C° 0 mm 1 mps 682 mmHg 25%
    05:00 +22°C° 0 mm 1 mps 682 mmHg 23%
    06:00 +23°C° 0 mm 1 mps 683 mmHg 22%
    07:00 +24°C° 0 mm 1 mps 684 mmHg 20%
    08:00 +26°C° 0 mm 1 mps 684 mmHg 20%
    09:00 +27°C° 0 mm 2 mps 684 mmHg 20%
    10:00 +28°C° 0 mm 2 mps 684 mmHg 21%
    11:00 +28°C° 0 mm 3 mps 684 mmHg 21%
    12:00 +29°C° 0 mm 4 mps 684 mmHg 21%
    13:00 +30°C° 0 mm 4 mps 683 mmHg 21%
    14:00 +30°C° 0 mm 5 mps 683 mmHg 22%
    15:00 +30°C° 0 mm 6 mps 683 mmHg 23%
    16:00 +30°C° 0 mm 7 mps 683 mmHg 24%
    17:00 +29°C° 0 mm 6 mps 683 mmHg 26%
    18:00 +28°C° 0 mm 5 mps 683 mmHg 28%
    19:00 +27°C° 0 mm 4 mps 683 mmHg 30%
    20:00 +26°C° 0 mm 3 mps 684 mmHg 32%
    21:00 +25°C° 0 mm 2 mps 684 mmHg 33%
    22:00 +24°C° 0 mm 1 mps 684 mmHg 35%
    23:00 +23°C° 0 mm 1 mps 683 mmHg 36%

    26 May, Sunday

    Time Temperature Precipitation Wind Pressure Humidity
    00:00 +23°C° 0 mm 1 mps 683 mmHg 37%
    01:00 +22°C° 0 mm 1 mps 683 mmHg 38%
    02:00 +21°C° 0 mm 1 mps 683 mmHg 38%
    03:00 +21°C° 0 mm 1 mps 682 mmHg 39%
    04:00 +20°C° 0 mm 1 mps 682 mmHg 39%
    05:00 +21°C° 0 mm 1 mps 682 mmHg 35%
    06:00 +22°C° 0 mm 1 mps 683 mmHg 32%
    07:00 +23°C° 0 mm 1 mps 683 mmHg 28%
    08:00 +24°C° 0 mm 1 mps 683 mmHg 26%
    09:00 +26°C° 0 mm 1 mps 683 mmHg 24%
    10:00 +27°C° 0 mm 1 mps 683 mmHg 22%
    11:00 +28°C° 0 mm 2 mps 683 mmHg 20%
    12:00 +29°C° 0 mm 3 mps 683 mmHg 19%
    13:00 +30°C° 0 mm 4 mps 682 mmHg 17%
    14:00 +30°C° 0 mm 4 mps 682 mmHg 16%
    15:00 +32°C° 0 mm 5 mps 682 mmHg 15%
    16:00 +32°C° 0 mm 5 mps 682 mmHg 14%
    17:00 +30°C° 0 mm 4 mps 682 mmHg 15%
    18:00 +29°C° 0 mm 4 mps 682 mmHg 16%
    19:00 +28°C° 0 mm 3 mps 682 mmHg 17%
    20:00 +27°C° 0 mm 2 mps 682 mmHg 20%
    21:00 +25°C° 0 mm 2 mps 682 mmHg 22%
    22:00 +24°C° 0 mm 1 mps 683 mmHg 24%
    23:00 +24°C° 0 mm 1 mps 682 mmHg 25%

    27 May, Monday

    Time Temperature Precipitation Wind Pressure Humidity
    00:00 +23°C° 0 mm 1 mps 682 mmHg 26%
    01:00 +22°C° 0 mm 1 mps 681 mmHg 27%
    02:00 +22°C° 0 mm 1 mps 681 mmHg 28%
    03:00 +21°C° 0 mm 1 mps 681 mmHg 28%
    04:00 +21°C° 0 mm 1 mps 681 mmHg 29%
    05:00 +22°C° 0 mm 1 mps 681 mmHg 26%
    06:00 +23°C° 0 mm 1 mps 682 mmHg 23%
    07:00 +25°C° 0 mm 1 mps 682 mmHg 20%
    08:00 +26°C° 0 mm 1 mps 682 mmHg 18%
    09:00 +27°C° 0 mm 2 mps 683 mmHg 16%
    10:00 +28°C° 0 mm 2 mps 683 mmHg 14%
    11:00 +30°C° 0 mm 3 mps 682 mmHg 13%
    12:00 +32°C° 0 mm 4 mps 682 mmHg 11%
    13:00 +33°C° 0 mm 4 mps 682 mmHg 10%
    14:00 +33°C° 0 mm 5 mps 682 mmHg 10%
    15:00 +34°C° 0 mm 5 mps 682 mmHg 9%
    16:00 +34°C° 0 mm 6 mps 681 mmHg 9%
    17:00 +32°C° 0 mm 5 mps 681 mmHg 10%
    18:00 +30°C° 0 mm 4 mps 682 mmHg 12%
    19:00 +29°C° 0 mm 3 mps 682 mmHg 13%
    20:00 +27°C° 0 mm 2 mps 682 mmHg 15%
    21:00 +26°C° 0 mm 2 mps 682 mmHg 17%
    22:00 +25°C° 0 mm 1 mps 682 mmHg 19%
    23:00 +24°C° 0 mm 1 mps 681 mmHg 20%
    Show more